Weather History for State College, PA

Change the Weather History Date:

Wednesday, December 4, 2013

  Actual Average Record
Temperature  
Mean Temperature 38 °F -  
Max Temperature 46 °F 40 °F 68 °F (2012)
Min Temperature 30 °F 25 °F 0 °F (1976)
Degree Days  
Heating Degree Days 27    
Moisture  
Dew Point 34 °F    
Average Humidity 92    
Maximum Humidity 100    
Minimum Humidity 76    
Precipitation  
Precipitation 0.00 in - - ()
Sea Level Pressure  
Sea Level Pressure 30.00 in    
Wind  
Wind Speed 0 mph (East)    
Max Wind Speed 5 mph    
Max Gust Speed -    
Visibility 3 miles    
Events Fog    
Averages and records for this station are not official NWS values.
T = Trace of Precipitation, MM = Missing Value Source: NWS Daily Summary

Daily Weather History Graph

Daily Weather History Graph

Search for Another Location

Airport:

Trip Planner

Search our weather history database for the weather conditions in past years. The results will help you decide how hot, cold, wet, or windy it might be!

Date:

Astronomy

Dec. 04, 2013 Rise Set
Actual Time 7:19 AM EST 4:43 PM EST
Civil Twilight 6:49 AM EST 5:14 PM EST
Nautical Twilight 6:14 AM EST 5:48 PM EST
Astronomical Twilight 5:41 AM EST 6:21 PM EST
Moon 8:45 AM EST (12/4) 6:52 PM EST (12/4)
Length of Visible Light 10h 25m
Length of Day
9h 23m
Waxing Crescent, 4% of the Moon is Illuminated
Dec 4
Waxing Crescent
Dec 9
First Quarter
Dec 17
Full
Dec 25
Last Quarter
Jan 1
New

Hourly Weather History & Observations

Time (EST) Temp. Windchill Dew Point Humidity Pressure Visibility Wind Dir Wind Speed Gust Speed Precip Events Conditions
12:15 AM 32.2 °F - 32.0 °F 99% 29.97 in 0.8 mi Calm Calm - N/A   Mist
12:35 AM 32.9 °F - 32.5 °F 99% 29.97 in 1.5 mi Calm Calm - N/A   Mist
12:55 AM 32.2 °F - 32.0 °F 99% 29.97 in 0.8 mi Calm Calm - N/A   Mostly Cloudy
1:15 AM 32.2 °F - 32.2 °F 100% 29.98 in 1.5 mi Calm Calm - N/A   Scattered Clouds
1:35 AM 32.5 °F - 32.2 °F 99% 29.98 in 2.0 mi Calm Calm - N/A   Scattered Clouds
1:55 AM 32.2 °F - 32.0 °F 99% 29.98 in 1.8 mi Calm Calm - N/A   Scattered Clouds
2:15 AM 32.0 °F - 31.8 °F 99% 29.99 in 1.0 mi Calm Calm - N/A   Mist
2:35 AM 32.0 °F - 32.0 °F 100% 30.00 in 1.2 mi Calm Calm - N/A   Mist
2:55 AM 32.0 °F - 32.0 °F 100% 30.00 in 2.0 mi Calm Calm - N/A   Scattered Clouds
3:15 AM 32.0 °F - 32.0 °F 100% 30.00 in 1.0 mi Calm Calm - N/A   Mostly Cloudy
3:35 AM 32.0 °F - 32.0 °F 100% 29.99 in 2.0 mi Calm Calm - N/A   Mostly Cloudy
3:55 AM 32.0 °F - 31.8 °F 99% 29.99 in 1.2 mi Calm Calm - N/A   Mostly Cloudy
4:15 AM 30.9 °F - 30.7 °F 99% 29.98 in 0.2 mi Calm Calm - N/A Fog Light Freezing Fog
4:35 AM 31.1 °F - 31.1 °F 100% 29.98 in 0.2 mi Calm Calm - N/A Fog Light Freezing Fog
4:55 AM 30.7 °F - 30.6 °F 99% 29.98 in 0.2 mi Calm Calm - N/A Fog Light Freezing Fog
5:15 AM 31.1 °F - 30.9 °F 99% 29.98 in 0.2 mi Calm Calm - N/A Fog Light Freezing Fog
5:35 AM 31.5 °F - 31.1 °F 99% 29.99 in 0.2 mi Calm Calm - N/A Fog Light Freezing Fog
5:53 AM 30.2 °F - 30.2 °F 100% 30.00 in 0.2 mi Calm Calm - N/A Fog Light Freezing Fog
6:53 AM 30.2 °F - 30.2 °F 100% 30.00 in 0.2 mi Calm Calm - N/A Fog Light Freezing Fog
7:53 AM 30.2 °F - 30.2 °F 100% 30.03 in 0.2 mi Calm Calm - N/A Fog Light Freezing Fog
8:53 AM 30.2 °F - 30.2 °F 100% 30.05 in 0.1 mi Calm Calm - N/A Fog Light Freezing Fog
9:22 AM 32.0 °F - 32.0 °F 100% 30.05 in 0.5 mi Calm Calm - N/A Fog Fog
9:53 AM 32.0 °F - 32.0 °F 100% 30.07 in 1.5 mi Calm Calm - N/A   Mostly Cloudy
12:53 PM 42.8 °F - 39.2 °F 87% 30.01 in 4.0 mi Calm Calm - N/A   Clear
1:53 PM 44.6 °F - 37.4 °F 76% 29.99 in 5.0 mi Calm Calm - N/A   Clear
2:53 PM 46.4 °F 45.2 °F 39.2 °F 76% 29.98 in 5.0 mi East 3.5 mph - N/A   Haze
2:54 PM 46.4 °F 45.2 °F 39.2 °F 76% 29.98 in 5.0 mi East 3.5 mph - N/A   Haze
2:55 PM 46.4 °F 45.2 °F 39.2 °F 76% 29.98 in 5.0 mi East 3.5 mph - N/A   Haze
3:53 PM 44.6 °F - 37.4 °F 76% 29.98 in 6.0 mi Calm Calm - N/A   Haze
4:53 PM 42.8 °F - 37.4 °F 81% 30.01 in 7.0 mi Calm Calm - N/A   Haze
5:53 PM 41.0 °F - 35.6 °F 81% 30.02 in 7.0 mi Calm Calm - N/A   Haze
6:53 PM 39.2 °F - 35.6 °F 87% 30.02 in 7.0 mi Calm Calm - N/A   Haze
7:53 PM 39.2 °F - 35.6 °F 87% 30.01 in 7.0 mi Calm Calm - N/A   Mist
8:53 PM 39.2 °F - 35.6 °F 87% 30.01 in 7.0 mi Calm Calm - N/A   Mostly Cloudy
9:55 PM 42.1 °F - 37.8 °F 85% 30.01 in 5.0 mi Calm Calm - N/A   Overcast
10:15 PM 43.7 °F - 39.2 °F 84% 30.02 in 5.0 mi Calm Calm - N/A   Haze
10:35 PM 42.4 °F - 39.4 °F 89% 30.03 in 5.0 mi Calm Calm - N/A   Overcast
10:55 PM 43.2 °F - 39.4 °F 86% 30.02 in 5.0 mi Calm Calm - N/A   Overcast
11:15 PM 44.4 °F - 40.1 °F 85% 30.01 in 5.0 mi Calm Calm - N/A   Overcast
11:35 PM 43.3 °F - 40.1 °F 88% 30.01 in 5.0 mi Calm Calm - N/A   Overcast
11:55 PM 43.7 °F 41.1 °F 40.1 °F 87% 30.02 in 5.0 mi WNW 4.6 mph - N/A   Overcast